星链-31390 (STARLINK-31390 )

导读

STARLINK-31390是美国SpaceX公司星链星座的成员卫星,于2024年2月10日发射入轨,属于星链低轨互联网星座扩容部署的一部分。星链计划旨在打造全球覆盖的低轨卫星通信网络,为全球偏远地区及热点区域提供高速低延迟的宽带服务,该卫星可与其他星链卫星协同,为更多用户提供卫星互联网接入服务。

Basic Information
目录编号:
58937
目录名称:
STARLINK-31390
国际标识:
2024-027G
轨道中心:
EARTH
卫星名称:
星链-31390
卫星全名:
星链-31390 (STARLINK-31390 )
卫星状态:
在轨 (已飞行937 天)
发射日期:
2024-02-10 UTC
国别 :
美国 (US)
星等 :
--
Orbit Information
数据来源 国际轨道数据 AOE轨道数据
星历时间 2026-09-03T14:23:00+0800
1天前
查看轨道信息
2026-09-02T11:00:00+0800
2天前
查看轨道信息
半长轴 6840.873km 6840.86km
偏心率 0.0001603 0.0001498
轨道倾角 53.160° 53.158°
近地点辐角 72.459° 52.671°
升交点赤经 204.263° 209.594°
平近点角 287.659° 121.427°
近地点 461.639km 461.698km
远地点 463.833km 463.748km
周期 93.848分钟 93.848分钟
每日圈数 15.343892 15.343936
Detailed Information
固有亮度:
5
最大亮度:
0.3
卫星平台:
Starlink v2.0 mini
覆盖范围:
全球
运营商:
太空探索技术公司
运营商所在国:
美国
制造商(研发单位):
太空探索技术公司
制造商所在国:
美国
使用方式:
暂无
Satellite Introduction
星链(Starlink)计划是由太空探索技术公司(SpaceX)提出的一个巨型低轨卫星互联网星座项目,计划在2019年至2024年间在太空搭建由约1.2万颗卫星组成的“星链”网络,其中1584颗将部署在地球上空550千米处的近地轨道,并从2020年开始工作。该卫星仍在工作。
2D Orbit Map
3D Orbit Map
Orbit Altitude Analysis Chart
Orbit Inclination Analysis Chart
Orbit Comprehensive Analysis Chart
View Comprehensive Chart
Conjunction Data List
Event ID Objects TCA Miss Dist (km) Collision Risk Probability Collision Risk Index (CRI) Action
CDM_260904-152804-944205-893722
2026-09-04T
15:28:29+0000
1.817 km
极远距离
2.573641E-6 低风险 0.43
CDM_260904-174904-944205-893722
2026-09-04T
17:49:09+0000
2.243 km
极远距离
1.541516E-6 低风险 0.39
CDM_260905-052504-975105-893721
2026-09-05T
05:25:47+0000
2.546 km
极远距离
1.451736E-6 低风险 0.38
CDM_260906-063705-893706-816821
2026-09-06T
06:37:17+0000
1.987 km
极远距离
1.451283E-6 低风险 0.38
CDM_260904-120805-258605-893721
2026-09-04T
12:08:09+0000
2.789 km
极远距离
1.313054E-6 低风险 0.37
CDM_260904-193905-480605-893721
2026-09-04T
19:39:11+0000
2.742 km
极远距离
1.129189E-6 低风险 0.36